Location: Bright Sky Observatory
(40.7821°N, 74.2425°W)
Time: 06:59:18
(UTC-04:00)

Daily predictions for brighter satellites

Satellite Brightness Start Highest point End
(mag) Time Altitude Azimuth Time Altitude Azimuth Time Altitude Azimuth
Cosmos 1707 4.4 21:03:13 10° SSW 21:06:50 38° WNW 21:10:27 10° N
Cosmos 1726 4.0 21:05:46 10° NNE 21:08:19 17° ENE 21:10:50 10° ESE
ERS-2 2.2 21:07:53 10° SSE 21:11:33 85° WSW 21:15:14 10° NNW
Spot 2 Rocket 3.5 21:07:10 10° SSE 21:12:13 87° ENE 21:17:19 10° NNW
Cosmos 1238 Rocket 2.2 21:11:06 10° S 21:13:58 53° E 21:17:01 10° NNE
ATLAS 3B R/B 3.2 21:14:36 10° NNW 21:20:58 46° NE 21:27:09 10° ESE
Lacrosse 5 3.1 21:18:21 10° WSW 21:23:13 46° NW 21:28:07 10° NE
ARGOS 3.4 21:18:02 10° SSE 21:23:20 58° ENE 21:28:39 10° N
Cosmos 1553 Rocket 4.5 21:18:54 10° SSE 21:24:28 40° E 21:30:03 10° NNE
Cosmos 1953 Rocket 3.6 21:22:41 10° S 21:27:02 86° W 21:31:28 10° N
CZ-4B DEB 4.4 21:23:49 10° SSE 21:27:15 80° E 21:30:44 10° N
Cosmos 2278 Rocket 3.2 21:22:38 10° SSE 21:27:16 27° ESE 21:31:55 10° NE
MetOp-A 4.3 21:22:08 10° SSE 21:27:22 60° ENE 21:32:39 10° N
USA 238 DEB 4.0 21:20:38 10° NNW 21:27:46 67° NE 21:34:27 12° SE
USA 238 4.0 21:20:44 10° NNW 21:27:52 66° NE 21:34:33 12° SE
Cosmos 1758 Rocket 4.2 21:27:40 10° SSW 21:32:03 60° W 21:36:25 10° N
Cosmos 1110 Rocket 4.1 21:27:20 10° NNW 21:32:30 65° ENE 21:37:11 12° SSE
NOSS 3-2 (A) 4.4 21:31:17 10° NNW 21:38:39 55° NE 21:45:48 14° SE
Cosmos 1315 Rocket 4.1 21:35:43 10° SSW 21:39:36 43° WNW 21:43:32 10° N
Cosmos 1844 Rocket 3.0 21:35:32 10° SSW 21:41:11 74° WNW 21:46:51 10° NNE
Cosmos 2221 4.3 21:39:11 10° NNE 21:42:08 18° ENE 21:44:18 13° ESE
Cosmos 494 Rocket 4.0 21:37:59 10° SSW 21:43:14 84° ESE 21:48:32 10° NNE
Cosmos 1331 Rocket 4.0 21:38:44 10° NNW 21:43:58 74° ENE 21:48:20 15° SSE
Cosmos 921 Rocket 3.1 21:40:31 10° NNW 21:45:01 87° W 21:48:59 13° SSE
COSMOS 2406 3.3 21:43:03 10° NNW 21:48:51 74° ENE 21:53:24 17° SSE
Cosmos 1461 3.4 21:46:01 10° S 21:50:24 46° ESE 21:54:58 10° NE
Cosmos 1844 3.9 21:45:04 10° SSW 21:50:46 81° WNW 21:56:34 10° NNE
Resurs 01 Rocket 3.7 21:48:08 10° SSW 21:51:43 24° W 21:55:20 10° NW
H-2A R/B 2.1 21:47:31 12° SSE 21:52:24 85° ENE 21:57:51 10° NNW
SPOT 1/Viking Rocket 4.3 21:49:02 16° SE 21:52:35 39° ENE 21:57:21 10° N
ATLAS 2AS CENTAUR R/B 3.6 21:46:27 10° SW 21:54:13 66° NW 22:02:20 10° NNE
KORONAS-FOTON 3.8 21:51:21 10° S 21:55:14 79° E 21:59:11 10° N
ATLAS 5 CENTAUR R/B 2.5 21:53:56 16° SSE 21:56:37 28° ESE 22:00:40 10° NE
Cosmos 1437 4.4 21:56:09 10° NNW 21:58:59 30° W 22:01:47 10° SSW
OAO 3 Rocket 4.0 21:57:37 10° WSW 22:02:08 35° SSW 22:04:34 22° SE
SL-14 R/B 3.9 22:00:39 23° SE 22:02:32 38° E 22:06:12 10° NNE
SEDSat Delta rocket 4.4 22:00:32 10° SW 22:04:43 24° S 22:05:49 22° SSE
NOSS 3-2 (C) 4.4 21:57:47 10° NNW 22:05:13 59° NE 22:11:26 18° SE
Cosmos 1346 Rocket 4.2 22:04:34 10° NNW 22:08:16 36° W 22:11:59 10° SSW
Cosmos 220 Rocket 3.9 22:04:28 10° SSW 22:08:41 89° WNW 22:12:55 10° NNE
Terra 3.0 22:06:52 19° ESE 22:09:17 29° ENE 22:13:21 10° N
ERS-1 Rocket 3.0 22:06:44 18° SSE 22:10:29 89° WSW 22:15:34 10° NNW
Cosmos 1626 3.4 22:10:24 22° ESE 22:10:59 23° E 22:13:58 10° NE
BREEZE-M DEB (TANK) 4.0 22:02:36 10° WSW 22:11:30 54° NNW 22:14:33 10° NE
Meteor 2-13 Rocket 4.5 22:06:31 10° N 22:12:34 67° E 22:16:43 21° SSE
Cosmos 1302 Rocket 4.0 22:08:28 10° NNW 22:13:46 75° ENE 22:16:58 24° SSE
Cosmos 1833 Rocket 3.8 22:09:02 10° N 22:13:59 31° ENE 22:17:18 18° ESE
Cosmos 2082 Rocket 3.5 22:10:28 10° N 22:15:23 29° NE 22:18:47 17° ESE
USA 215 4.0 22:14:20 17° SSE 22:19:00 43° SW 22:25:13 10° WNW
CZ-2C R/B 3.9 22:15:32 10° NE 22:19:38 22° E 22:20:49 20° ESE
Cosmos 1745 Rocket 4.0 22:14:01 10° N 22:20:22 85° E 22:24:48 20° S
Cosmos 1340 3.0 22:19:01 10° NNW 22:22:46 63° W 22:24:49 25° S
DMSP B5D2-2 4.0 22:19:09 10° NNE 22:24:25 89° WNW 22:29:08 13° SSW
CARTOSAT-1 4.1 22:23:41 29° SE 22:25:25 45° ENE 22:29:34 10° N
CENTAUR R/B 3.8 22:19:26 10° NNW 22:26:58 45° NE 22:33:17 17° ESE
NOSS 2-2 (E) 3.3 22:26:03 20° SSW 22:28:35 61° ESE 22:32:50 10° NE
Cosmos 2251 Rocket 3.7 22:23:35 10° SSW 22:28:55 76° WNW 22:34:15 10° NNE
Cosmos 1076 Rocket 4.0 22:30:20 34° SE 22:31:27 41° E 22:35:27 10° NNE
NOSS 3-4 (A) 3.4 22:25:27 10° SSW 22:31:36 85° ESE 22:38:01 10° NE
NOSS 3-4 (C) 3.4 22:25:33 10° SSW 22:31:40 84° ESE 22:38:06 10° NE
Helios 1B rocket 2.3 22:33:19 10° NNE 22:37:24 67° ESE 22:38:53 37° S
Helios 1A 3.1 22:37:59 33° S 22:39:47 73° WSW 22:44:01 10° NNW
Meteor 1-29 3.0 22:38:11 10° NNE 22:41:31 51° E 22:41:37 51° ESE
Cosmos 1455 3.8 22:40:15 10° NNE 22:43:10 21° ENE 22:43:26 21° E
Cosmos 1726 3.9 22:40:20 10° NNW 22:43:36 28° W 22:45:50 16° SW
Cosmos 1300 2.8 22:41:18 10° NNW 22:45:07 69° W 22:46:20 40° SSW
Cosmos 1766 Rocket 4.4 22:48:52 32° ESE 22:49:21 33° E 22:53:23 10° NNE
APEX 4.2 22:48:29 10° NW 22:51:33 34° WSW 22:52:31 29° SW
Cosmos 1709 Rocket 3.9 22:47:16 10° N 22:53:31 77° E 22:56:22 34° SSE
CZ-2C R/B 3.3 22:54:27 35° SSE 22:57:00 74° ENE 23:02:44 10° N
SPOT 5 3.7 22:54:57 25° SSW 22:57:40 50° W 23:02:48 10° NNW
Cosmos 407 Rocket 4.5 22:58:04 28° ESE 22:58:13 28° E 23:02:34 10° NE
NOSS 2-2 (D) 3.4 22:57:20 22° SW 22:59:43 75° NW 23:04:01 10° NNE
YAOGAN 11 4.2 23:00:38 47° SE 23:01:48 68° ENE 23:06:20 10° N
RESURS DK-1 2.2 23:03:43 60° SSE 23:04:18 71° ESE 23:08:26 10° NNE
Cosmos 2278 Rocket 3.3 23:05:42 10° SW 23:11:04 43° WNW 23:16:29 10° N
ATLAS 3B R/B 3.6 23:05:35 10° NW 23:11:28 35° WSW 23:14:25 24° SSW
Cosmos 1190 Rocket 4.5 23:12:42 39° ESE 23:13:06 39° ESE 23:17:56 10° NE
Meteor 1-11 4.2 23:12:37 41° S 23:14:41 74° E 23:20:29 10° NNE
Cosmos 1328 4.2 23:14:45 44° SW 23:15:41 58° W 23:19:35 10° N
Cosmos 2221 3.7 23:15:53 10° NNW 23:19:51 36° W 23:21:10 29° SW
SL-27 R/B 2.6 23:21:09 10° NNW 23:24:32 75° NW 23:24:32 75° NW
Cosmos 1441 Rocket 3.9 23:22:40 10° N 23:26:00 42° ENE 23:26:00 42° ENE
Okean 3 Rocket 4.2 23:27:16 36° SW 23:28:36 49° W 23:32:53 10° N
Aureole 3 Rocket 4.4 23:31:28 24° SSW 23:35:57 60° W 23:41:22 10° N
Cosmos 1328 Rocket 3.6 23:32:13 10° N 23:36:32 60° E 23:36:39 59° E
Cosmos 2369 Rocket 3.4 23:39:36 25° E 23:39:36 25° E 23:43:46 10° NE
Cosmos 405 Rocket 3.4 23:36:16 10° N 23:39:21 44° NE 23:39:21 44° NE
ATLAS 5 CENTAUR R/B 3.3 23:37:01 10° WSW 23:41:07 33° NW 23:45:37 10° NNE
Cosmos 1743 Rocket 4.0 23:42:24 49° E 23:42:24 49° E 23:46:25 10° NNE
Cosmos 2228 Rocket 3.6 23:40:44 10° N 23:45:02 47° ENE 23:45:04 47° E
Cosmos 1626 4.3 23:45:00 17° W 23:46:13 20° WNW 23:49:03 10° NNW
Cosmos 332 Rocket 4.4 23:41:46 10° N 23:46:29 45° ENE 23:47:12 42° E
Terra 3.1 23:45:46 26° WSW 23:46:57 29° W 23:51:06 10° NW
Cosmos 2184 Rocket 3.9 23:42:30 10° N 23:48:51 83° E 23:50:33 52° SSE
SL-19 R/B 4.2 23:45:53 10° NNE 23:51:11 55° E 23:51:36 54° ESE
